CAPE
0 1 29 210 496 687 688 650 642 712 800 900 932 956 972 1044 1159 1233 1337 1440 1509 1571 1705 1877 2008 1980 1836 1840 2000 2090 2040 1957 1887 1819 1702 1591 1534 1482 1550 1662 1802 1840 1896 2038 2073 2136 2175 2121 2006 1997 1834 1404 1289 1337 953 304 31 28 1 0 0 0 0
2 13 35 127 395 666 773 736 714 759 837 947 1012 1005 1012 1027 1118 1209 1321 1484 1573 1583 1705 1817 1967 2055 2004 1932 1953 2058 2066 2025 1952 1870 1786 1685 1585 1507 1600 1672 1763 1831 1818 1924 2035 2085 2030 1949 1924 1924 1782 1330 1017 1019 719 3 1 0 0 0 0 0 0
16 47 52 109 242 543 779 830 810 837 904 1006 1092 1094 1095 1106 1136 1231 1362 1487 1612 1656 1721 1807 1918 2025 2050 2016 1972 2037 2055 2047 1999 1943 1865 1767 1726 1632 1656 1704 1727 1768 1755 1747 1845 1856 1901 1898 1904 1842 1695 1258 919 834 443 0 0 0 0 0 0 0 0
12 51 95 115 193 382 632 856 898 916 972 1068 1156 1194 1190 1223 1239 1269 1413 1557 1653 1727 1795 1858 1928 1983 2088 2090 2024 2019 2047 2055 2038 1994 1956 1845 1760 1752 1729 1763 1727 1677 1650 1552 1557 1634 1741 1787 1695 1664 1557 1110 959 832 434 0 0 0 0 0 0 0 0
10 15 86 171 199 303 440 706 906 950 1011 1097 1214 1271 1260 1274 1346 1382 1477 1639 1751 1822 1898 1966 2002 2036 2116 2169 2136 2072 2053 2055 2038 2019 2030 1969 1822 1799 1792 1767 1727 1646 1531 1422 1428 1484 1530 1536 1522 1491 1354 1125 1065 863 515 0 0 0 0 0 0 0 0
24 15 45 207 235 341 375 498 758 951 1026 1106 1215 1315 1325 1307 1369 1482 1599 1831 1892 1951 2029 2084 2123 2178 2164 2224 2230 2190 2140 2072 2056 2063 2080 2079 1964 1845 1818 1778 1725 1616 1489 1392 1392 1417 1478 1474 1463 1422 1296 1173 1091 799 0 0 0 0 0 0 0 0 0
46 49 38 97 266 430 414 425 557 823 968 1058 1174 1315 1385 1373 1395 1514 1694 1928 2023 2102 2178 2247 2267 2281 2288 2292 2296 2286 2224 2175 2144 2159 2145 2137 2065 1948 1856 1802 1716 1607 1472 1359 1402 1365 1438 1454 1422 1357 1282 1190 1081 0 0 0 0 0 0 0 0 0 0
43 73 70 81 184 362 483 474 512 700 878 996 1120 1292 1429 1427 1433 1489 1684 1966 2151 2223 2304 2393 2399 2410 2392 2358 2368 2345 2298 2220 2195 2227 2225 2194 2139 2046 1923 1842 1739 1598 1445 1386 1391 1394 1405 1421 1403 1298 1196 1141 1055 602 0 0 0 0 0 0 0 0 0
25 72 105 130 186 339 505 548 588 722 890 998 1106 1279 1454 1478 1470 1494 1620 1968 2213 2302 2406 2487 2519 2507 2486 2446 2414 2404 2361 2283 2232 2238 2281 2253 2189 2117 2012 1899 1773 1630 1467 1425 1398 1413 1415 1435 1392 1345 1248 1139 1050 772 51 0 0 0 0 0 0 0 0
7 47 119 180 234 320 541 575 642 783 958 1062 1122 1237 1431 1500 1504 1509 1589 1885 2184 2348 2471 2580 2632 2614 2578 2522 2465 2418 2388 2358 2293 2269 2304 2315 2271 2195 2107 1997 1889 1715 1570 1514 1457 1440 1416 1372 1395 1408 1349 1222 1082 843 618 494 0 0 0 0 0 0 0
80 145 227 246 359 452 544 607 666 859 1024 1105 1164 1220 1372 1471 1518 1524 1575 1781 2116 2330 2496 2665 2714 2705 2667 2620 2538 2441 2390 2364 2341 2324 2330 2331 2313 2282 2192 2080 1973 1856 1734 1617 1557 1497 1454 1361 1280 1278 1269 1195 1120 1019 830 582 8 0 78 0 0 1 2
126 163 179 242 178 363 538 626 682 821 1029 1125 1182 1243 1329 1452 1504 1540 1570 1703 2034 2296 2497 2678 2759 2771 2748 2698 2625 2534 2415 2359 2340 2355 2365 2368 2341 2317 2252 2140 2019 1953 1849 1713 1652 1615 1520 1447 1350 1256 1161 1143 1130 1078 926 609 445 422 389 0 0 0 10
138 134 148 197 250 257 542 652 738 803 924 1101 1203 1251 1366 1434 1490 1549 1587 1638 1905 2253 2489 2676 2782 2823 2792 2751 2703 2619 2508 2410 2359 2362 2389 2402 2399 2352 2290 2199 2074 1982 1938 1848 1750 1703 1684 1604 1498 1379 1257 1155 1064 936 762 639 558 531 455 3 0 0 2
167 169 148 199 280 357 532 703 792 868 847 928 1130 1215 1386 1512 1514 1544 1568 1638 1810 2134 2430 2617 2759 2838 2824 2804 2752 2680 2567 2484 2399 2387 2409 2422 2424 2408 2339 2256 2135 2022 1954 1898 1846 1797 1748 1702 1597 1498 1421 1409 1337 1149 954 806 695 637 526 430 404 291 97
109 224 218 215 266 327 487 643 790 844 888 926 989 1103 1244 1494 1654 1622 1589 1620 1770 2029 2349 2566 2716 2800 2827 2809 2779 2704 2622 2541 2472 2417 2400 2418 2448 2451 2410 2321 2201 2087 1985 1912 1888 1841 1788 1672 1632 1601 1582 1567 1498 1354 1160 966 813 716 594 563 518 433 362
30 63 245 260 280 408 520 636 767 836 872 911 986 1039 1114 1314 1614 1759 1754 1711 1790 1981 2253 2494 2659 2759 2808 2822 2800 2744 2684 2620 2552 2481 2413 2399 2430 2462 2465 2383 2275 2169 2068 1971 1939 1914 1843 1746 1650 1601 1598 1572 1490 1372 1244 1067 909 800 729 705 665 620 558
226 214 186 232 282 458 581 665 758 845 890 981 1071 1083 1149 1265 1468 1717 1822 1836 1851 1975 2183 2442 2596 2711 2787 2824 2821 2796 2741 2690 2638 2552 2492 2429 2414 2430 2454 2418 2353 2262 2167 2087 2020 1997 1934 1854 1752 1686 1609 1538 1487 1414 1305 1168 1028 927 879 822 763 710 660
408 414 390 381 366 474 603 682 838 937 982 1066 1170 1243 1318 1389 1477 1587 1752 1826 1877 1953 2077 2318 2520 2663 2765 2808 2820 2808 2772 2732 2696 2648 2609 2529 2468 2439 2457 2446 2404 2346 2292 2206 2127 2068 2002 1933 1865 1796 1727 1681 1607 1516 1392 1271 1125 1051 1010 951 874 764 708
544 528 667 727 678 620 582 685 937 1058 1101 1127 1228 1376 1516 1580 1590 1662 1744 1802 1855 1901 1987 2174 2368 2543 2691 2786 2814 2824 2810 2762 2711 2698 2679 2638 2566 2511 2482 2472 2427 2392 2332 2303 2262 2206 2122 2038 1940 1848 1782 1722 1662 1574 1468 1352 1240 1155 1098 1050 941 740 774
641 664 732 833 847 827 848 930 1013 1143 1221 1251 1308 1459 1681 1721 1696 1732 1788 1845 1885 1907 1958 2044 2154 2330 2527 2702 2801 2841 2831 2790 2744 2724 2706 2686 2637 2551 2491 2479 2462 2424 2360 2340 2335 2267 2188 2118 2032 1945 1861 1772 1704 1635 1543 1454 1366 1296 1162 1287 1177 1128 933
738 766 804 932 976 1006 1008 996 1065 1154 1248 1322 1389 1484 1641 1807 1802 1765 1759 1807 1855 1866 1897 1906 1983 2147 2349 2543 2750 2866 2868 2839 2786 2753 2702 2675 2665 2635 2558 2506 2452 2435 2423 2413 2391 2341 2269 2176 2122 2057 1961 1883 1806 1724 1650 1584 1445 1655 1658 1546 1511 1458 919
1027 967 857 979 1081 1061 1060 1032 1046 1149 1311 1426 1493 1562 1610 1782 1918 1940 1895 1874 1894 1929 1969 2018 2025 2079 2268 2418 2603 2788 2886 2874 2831 2764 2708 2677 2702 2689 2650 2590 2549 2533 2535 2502 2462 2410 2352 2305 2230 2174 2092 1987 1892 1876 1842 1830 1784 1767 1754 1723 1755 1696 1258
639 750 980 1069 1098 1151 1071 1046 1047 1105 1218 1425 1609 1666 1771 1859 1944 2010 2023 2010 2015 2063 2092 2112 2150 2164 2197 2372 2508 2664 2808 2835 2811 2782 2751 2720 2716 2721 2716 2685 2661 2667 2649 2606 2562 2539 2536 2510 2472 2409 2345 2259 2184 2115 2091 2037 2008 2023 2026 2112 2009 1787 1421
0 0 0 677 1224 1194 1079 1073 1083 1099 1072 1295 1568 1704 1790 1917 2041 2078 2094 2092 2106 2136 2163 2183 2208 2220 2206 2298 2456 2587 2703 2784 2817 2815 2782 2743 2745 2714 2704 2705 2748 2787 2758 2722 2724 2714 2728 2678 2662 2623 2545 2490 2402 2325 2210 2196 2272 2329 2230 2157 2148 2138 1275
914 1096 729 246 316 1019 1185 1119 1033 1024 1083 1243 1517 1698 1817 1893 2032 2151 2185 2218 2238 2220 2216 2224 2235 2228 2238 2256 2373 2528 2618 2730 2809 2827 2810 2810 2798 2771 2746 2758 2817 2846 2845 2862 2862 2872 2864 2871 2857 2804 2746 2734 2678 2543 2448 2463 2502 2481 2425 2268 2292 1937 1134
1756 1515 1708 2562 2483 2210 745 1274 1781 1750 1494 1522 1510 1579 1742 1915 1972 2084 2180 2211 2238 2244 2280 2316 2338 2327 2301 2299 2292 2312 2494 2596 2722 2780 2819 2845 2863 2869 2859 2866 2872 2872 2917 2954 2968 3028 3048 3040 2988 2969 2987 2940 2867 2733 2774 2714 2840 2736 2616 2406 2149 1988 1322
1768 1710 1478 2207 3048 2997 2144 899 1525 2235 2291 2416 2534 2416 2062 1899 1904 1974 2065 2157 2137 2134 2216 2323 2370 2377 2359 2316 2248 2195 2330 2485 2590 2686 2771 2832 2920 2970 2980 2976 2973 2978 2985 3003 3048 3120 3169 3173 3168 3177 3160 3065 2938 2869 2824 2924 2898 2928 2781 2378 2126 1888 1410
1364 1298 1294 1360 2827 3262 3157 2289 1605 2120 2758 2948 3080 3234 3237 2885 1997 1815 1860 1934 2034 2128 2191 2245 2312 2366 2358 2296 2237 2198 2186 2359 2530 2614 2746 2920 3026 3094 3074 3108 3097 3084 3036 3034 3092 3161 3224 3242 3237 3220 3138 3034 2952 3007 3015 3110 3088 3062 2488 2244 1866 890 716
1422 1359 1314 1461 1412 2952 3546 3627 2835 2615 2862 3018 3115 3194 3262 3360 3078 2629 2479 2087 2190 2149 2119 2165 2230 2256 2276 2258 2239 2229 2225 2223 2361 2541 2825 3082 3197 3237 3238 3228 3214 3188 3141 3126 3141 3197 3202 3198 3176 3204 3210 3074 3202 3327 3347 3420 3273 2662 2296 1954 921 666 527
1567 1550 1393 1456 1531 1629 2369 3459 3501 3314 3154 3133 3100 3307 3380 3490 3475 3468 3051 2908 3341 2902 2418 2034 2134 2196 2198 2226 2248 2239 2240 2237 2204 2519 2995 3204 3326 3375 3336 3340 3329 3328 3335 3306 3353 3322 3415 3445 3156 3279 3294 3414 3546 3530 3581 3365 2733 2407 2080 1222 702 578 400
1635 1562 1474 1475 1478 1601 1783 2223 2867 3397 3525 3485 3442 3324 3495 3544 3573 3518 3391 3261 3356 3096 2960 2778 2506 2276 2325 2488 2560 2541 2670 2831 2971 3158 3313 3412 3460 3464 3386 3450 3460 3452 3386 3373 3352 3502 3676 3604 3341 3132 3342 3566 3597 3550 3414 2908 2388 2094 1545 756 519 457 412
1687 1665 1706 1631 1518 1562 1832 1848 2101 2480 2712 2847 3141 3380 3505 3516 3524 3602 3682 3722 3773 3652 3095 2789 2683 2710 2837 2929 2955 2931 2948 3050 3207 3311 3398 3506 3570 3567 3520 3480 3480 3540 3480 3429 3622 3623 3546 3544 3198 2980 3250 3550 3536 3449 3110 2706 2484 1858 926 688 601 562 478
1457 1655 1755 1665 1706 1618 1755 1875 1961 2104 2229 2340 2478 2564 2924 2968 2547 2583 2755 3395 3147 3372 3187 3010 2712 2732 2845 2880 2924 2982 2935 3002 3205 3374 3451 3527 3604 3659 3636 3601 3534 3565 3606 3472 3556 3552 3578 3361 2842 3051 3396 3606 3312 2987 2709 2535 1891 1043 814 679 600 535 452
1406 1630 1754 1768 1693 1683 1699 1797 1936 2057 2106 2144 2348 2442 2684 2777 2359 2110 2123 2252 2339 2677 3164 3511 3619 3416 3057 2809 2835 2877 2862 2880 3051 3275 3412 3478 3532 3574 3573 3702 3686 3382 3119 3127 3508 3546 2823 2086 2602 2924 3617 3106 2840 2680 2345 1586 992 911 815 505 483 451 398
1437 1717 1756 1804 1786 1710 1730 1762 1918 1935 2123 2209 2322 2380 2422 2475 2698 2923 3147 3299 3378 3726 3818 3761 3659 3545 3372 3135 2919 2849 2866 2775 2858 3054 3163 3349 3481 3569 3464 3226 2766 2795 3223 3347 2979 2119 2045 2650 3242 3259 2905 2514 2130 1566 1216 1064 938 863 16 0 0 0 12
1375 1724 1841 1894 1911 1893 1828 1887 1934 2059 2140 2177 2255 2303 2237 2251 2361 2581 2783 2925 3174 3390 3536 3553 3496 3373 3260 3149 3154 3161 2802 2592 2664 2867 3098 3270 3527 3355 2655 2029 2510 2997 3220 2696 2382 2474 2686 2616 2446 2048 1761 1495 1358 1311 1120 966 792 0 0 0 0 0 0
1447 1507 1650 1813 2011 1997 1975 1879 2016 2068 2148 2148 2126 2189 2207 2227 2210 2287 2358 2448 2597 2814 3015 3052 3126 3185 3241 3294 2929 2200 2574 1828 1920 2683 2781 2706 2579 2206 1922 2258 2736 2574 2623 2364 2598 2823 1960 1703 1545 1285 1168 1226 1248 1080 871 538 0 0 0 0 0 0 0
1620 1688 1724 1769 1948 2276 2280 2226 2024 1999 1984 2215 2223 2103 2263 2283 2412 2448 2359 2407 2517 2677 2845 2954 3159 3265 3299 3065 2042 1346 1761 2172 1850 1633 1476 1554 1419 1542 1833 2191 2400 2562 2901 2837 2483 1667 1386 1286 928 818 780 771 669 608 203 0 0 0 0 0 0 0 0
Wind_Speed
nan nan nan 16 14 14 16 18 19 18 18 18 17 18 17 15 15 16 17 19 21 21 21 21 21 21 21 19 19 18 16 13 12 13 13 12 12 12 13 13 13 14 15 15 12 10 9 9 10 11 12 14 15 15 16 15 nan nan nan nan nan nan nan
nan nan nan 16 16 15 17 20 21 19 19 20 20 21 19 18 19 20 21 23 23 23 23 22 22 21 21 20 18 18 17 15 14 13 14 13 13 12 13 14 14 15 16 13 11 8 8 8 10 12 13 14 15 15 16 nan nan nan nan nan nan nan nan
nan nan nan 17 18 18 17 18 19 20 20 20 21 22 21 20 22 24 26 26 25 24 24 24 22 21 21 20 18 17 16 16 15 15 15 15 14 14 14 14 14 16 15 12 10 8 6 8 10 13 14 14 15 16 16 nan nan nan nan nan nan nan nan
nan nan nan 21 21 22 20 19 19 19 19 21 23 23 22 22 22 24 27 28 29 28 27 25 23 22 21 21 19 17 16 17 17 18 17 16 15 15 15 14 16 16 13 9 8 8 7 9 13 13 14 14 15 16 16 nan nan nan nan nan nan nan nan
nan nan nan 20 21 22 21 18 18 19 19 19 20 21 22 23 24 25 26 27 29 30 30 30 26 23 22 22 20 18 17 18 19 20 19 16 14 14 14 14 16 15 10 7 7 8 9 11 12 12 13 14 15 15 15 nan nan nan nan nan nan nan nan
nan nan nan 18 19 20 20 18 18 19 18 18 19 19 20 23 24 25 25 27 27 28 29 29 28 25 23 21 20 19 18 18 19 19 17 13 12 12 13 15 15 11 6 5 7 8 10 11 11 13 14 14 15 15 nan nan nan nan nan nan nan nan nan
nan nan nan nan 17 18 17 16 16 16 17 19 20 20 22 23 22 22 23 24 27 29 29 29 28 25 22 21 20 20 18 17 17 15 11 9 9 11 14 16 12 7 4 6 6 8 9 11 12 13 14 14 14 nan nan nan nan nan nan nan nan nan nan
nan nan nan nan 17 18 18 15 15 15 18 19 21 22 23 21 20 21 21 22 25 26 27 28 27 25 23 21 20 19 17 14 12 9 8 8 9 11 14 13 9 5 5 6 6 7 9 11 12 12 13 13 14 16 nan nan nan nan nan nan nan nan nan
nan nan 22 19 17 17 18 18 16 17 20 21 21 22 22 20 19 19 21 22 23 25 26 27 27 25 23 21 19 17 14 11 8 8 8 8 10 11 11 10 7 5 4 5 5 6 8 10 11 12 12 12 14 16 nan nan nan nan nan nan nan nan nan
nan nan 22 22 19 16 16 17 18 20 22 21 21 21 20 18 17 18 19 20 20 23 25 26 26 25 24 21 18 15 11 7 6 8 8 8 10 9 9 9 6 4 3 4 5 6 6 9 10 10 11 12 14 16 17 19 nan nan nan nan nan nan nan
nan 19 21 22 22 19 18 19 22 23 23 23 21 21 20 17 17 18 18 17 18 19 22 23 24 25 24 21 18 13 8 5 7 8 8 8 10 8 8 7 5 4 3 5 4 4 5 5 8 9 10 12 15 16 18 20 nan nan nan nan nan nan nan
20 19 19 22 23 24 23 23 24 24 23 22 22 23 22 19 18 18 18 16 16 18 19 21 23 24 23 20 16 11 8 6 7 8 7 8 10 8 8 6 5 4 4 4 2 2 3 5 7 8 11 13 15 16 18 19 21 24 26 nan nan nan nan
18 17 19 21 22 23 23 23 23 23 22 22 22 23 23 22 20 20 19 19 20 20 20 20 22 23 22 21 18 12 9 7 7 10 10 10 10 11 10 8 6 5 4 3 1 1 2 4 7 8 11 13 14 16 18 20 22 24 26 nan nan nan nan
17 15 17 20 21 23 23 22 21 22 22 21 22 24 25 24 22 22 22 22 23 24 22 20 21 22 22 22 21 15 11 8 9 13 12 14 14 12 11 10 8 6 6 6 4 3 3 6 8 9 10 12 14 16 18 21 23 25 28 31 33 35 nan
24 16 13 18 22 23 24 23 22 22 22 22 24 26 27 25 23 22 22 24 26 28 26 24 23 22 22 23 23 19 14 11 13 17 17 17 17 14 12 11 10 10 10 8 6 7 6 8 10 11 12 13 16 19 21 24 27 29 33 36 39 40 39
nan nan 18 18 20 22 22 23 23 23 23 25 27 29 30 27 25 24 25 25 27 28 28 28 25 23 23 23 24 23 18 16 16 19 21 20 17 14 13 14 13 12 10 8 7 8 8 9 11 13 15 18 20 22 24 26 28 35 45 46 45 46 43
30 30 27 24 21 20 20 21 23 25 26 27 30 32 31 28 26 26 26 26 26 25 27 29 27 26 25 23 24 26 23 20 19 22 22 20 18 18 17 16 16 14 11 9 10 9 9 10 12 15 17 22 24 26 25 26 30 43 47 51 54 52 49
34 37 38 35 31 25 24 24 25 26 27 28 30 32 31 29 29 30 29 29 27 26 29 30 30 29 27 25 26 28 27 23 22 23 22 23 20 20 19 20 19 15 11 11 10 10 10 11 14 17 20 22 25 28 28 28 35 46 49 52 55 54 49
33 36 39 42 38 31 28 28 29 29 28 28 29 31 31 33 33 32 31 31 30 32 33 32 31 30 28 26 27 28 27 24 24 23 24 23 21 23 26 23 19 15 12 10 11 11 11 13 16 19 21 25 28 29 29 30 38 45 49 51 52 52 50
33 32 36 39 39 35 32 31 31 31 30 29 29 30 31 33 33 31 31 32 35 37 36 34 32 30 28 27 26 27 27 26 24 23 23 25 26 28 28 25 19 17 15 14 12 11 12 15 18 20 23 26 28 29 30 33 39 47 48 48 49 51 50
35 34 35 37 38 37 36 35 34 34 33 31 31 31 33 33 32 31 32 34 38 39 38 35 32 29 27 27 27 28 28 26 24 23 25 28 30 29 28 26 24 20 17 15 13 12 14 17 19 21 23 25 27 29 31 32 42 46 48 47 48 50 48
42 43 37 35 34 36 37 35 34 33 32 32 32 33 35 35 36 36 36 38 39 39 37 34 30 28 28 27 28 29 29 28 25 24 28 29 30 28 27 28 25 21 21 19 15 13 15 16 18 21 23 25 28 29 31 33 44 46 48 48 47 50 47
45 43 41 36 33 33 34 35 36 37 38 37 33 33 34 36 39 39 39 40 38 37 35 33 29 27 28 27 28 30 31 29 26 27 30 30 30 29 28 28 26 24 24 20 17 16 17 18 19 21 24 27 29 31 31 33 42 48 49 48 48 47 46
nan nan nan 40 40 41 37 38 39 40 42 38 32 29 33 37 40 40 40 40 38 37 34 31 29 28 28 27 28 30 32 31 29 29 31 33 31 30 29 28 27 25 25 22 20 18 19 20 20 22 25 28 30 33 34 34 41 49 49 48 50 49 46
60 58 55 50 45 41 43 42 42 42 43 42 37 31 32 37 40 41 41 41 41 39 36 32 30 30 29 26 27 28 30 30 30 30 31 33 33 33 30 28 27 27 27 24 22 21 22 23 23 24 25 28 31 36 37 37 41 47 49 50 50 48 45
59 61 59 56 57 54 48 47 48 46 46 44 40 37 38 40 43 42 41 43 43 41 38 37 35 33 31 30 29 29 28 30 31 32 32 33 35 34 31 31 32 30 27 26 26 26 25 25 26 28 27 30 33 35 37 41 42 43 49 50 50 49 45
49 51 54 57 60 60 59 53 50 47 45 45 43 41 39 41 43 42 43 45 44 40 38 40 38 36 35 36 37 34 30 30 32 33 32 34 35 34 34 34 33 33 30 29 30 29 28 28 28 28 29 33 36 38 39 42 45 43 49 50 49 49 48
52 52 51 53 57 63 64 67 64 63 66 64 62 61 57 53 46 43 44 46 44 38 38 40 39 37 37 40 42 40 36 33 32 33 35 36 38 38 36 35 36 35 34 35 35 34 32 32 31 30 32 35 37 38 41 45 50 46 45 48 47 48 49
53 53 51 52 55 56 57 61 69 71 69 67 67 66 62 60 58 58 61 60 57 55 52 48 43 38 38 42 44 43 43 40 36 37 39 39 40 40 38 37 38 39 39 41 43 42 40 38 36 33 34 36 37 39 42 46 47 49 43 42 45 47 48
50 50 49 48 49 50 52 56 59 62 64 66 68 67 66 69 67 64 65 63 60 60 60 60 57 52 49 49 49 49 50 48 44 42 43 43 46 45 42 40 43 48 50 53 55 58 57 47 39 36 33 36 38 40 43 47 46 41 44 46 48 49 50
53 51 49 47 47 49 51 55 60 61 61 60 62 66 67 67 69 67 66 61 60 63 64 62 62 62 59 56 56 57 59 60 58 54 52 52 52 53 53 56 56 55 55 58 59 57 51 46 43 38 35 37 41 44 45 47 45 41 42 50 54 53 52
52 52 52 52 52 52 52 54 59 64 66 65 62 59 61 64 67 69 67 69 71 68 68 71 73 73 68 63 62 63 64 66 67 63 61 61 62 63 61 58 57 59 60 62 58 53 52 50 46 37 37 39 44 47 47 46 44 44 46 49 51 51 52
56 57 58 59 57 56 57 57 60 63 65 68 66 64 63 63 66 69 70 73 74 74 66 64 63 65 68 70 70 68 67 68 67 68 67 66 66 66 65 62 62 64 63 58 58 58 53 46 38 38 40 42 47 50 46 42 42 45 47 48 49 49 48
60 61 62 62 62 61 62 63 62 59 58 61 63 63 65 69 72 72 73 76 77 74 69 63 60 62 65 71 75 75 75 74 74 74 71 69 69 66 63 63 64 65 62 58 56 53 48 42 40 42 43 45 49 51 45 39 40 43 46 46 49 50 46
60 60 59 61 61 61 61 61 63 60 58 58 58 59 61 64 66 68 70 71 73 75 77 76 75 74 72 70 70 74 76 79 80 78 76 73 73 72 68 64 65 67 69 66 57 51 50 48 47 47 48 50 50 47 42 39 40 41 nan nan nan nan nan
60 60 60 57 56 56 56 56 56 57 58 58 57 57 60 62 62 62 65 66 68 73 79 79 77 74 73 74 70 61 65 76 82 84 84 83 84 87 84 84 83 79 75 65 60 57 55 56 51 48 49 47 42 41 43 42 42 nan nan nan nan nan nan
60 60 59 57 57 57 56 54 54 55 58 58 57 58 59 61 60 61 62 64 67 72 76 78 76 72 70 72 69 64 58 63 80 80 83 87 90 91 86 77 78 86 84 73 65 61 61 56 52 49 44 44 40 35 37 47 nan nan nan nan nan nan nan
60 58 56 56 55 54 55 54 53 54 54 55 57 57 57 58 60 60 61 62 65 69 72 74 75 73 73 75 71 64 64 68 67 63 66 71 75 77 74 71 70 71 71 65 60 61 60 56 47 43 45 46 47 44 39 nan nan nan nan nan nan nan nan
Wind_Direction
nan nan nan 298 292 288 296 305 307 303 303 305 308 312 308 301 302 302 305 308 313 310 310 311 311 307 313 312 313 311 312 311 304 304 302 300 296 296 297 295 300 296 291 298 299 304 311 325 339 346 338 333 337 344 351 353 nan nan nan nan nan nan nan
nan nan nan 298 296 293 302 307 306 302 301 306 308 312 308 310 307 309 308 307 311 313 314 314 311 308 308 307 305 311 315 317 310 297 290 286 286 287 293 297 295 292 292 292 290 291 307 343 346 343 336 328 331 337 344 nan nan nan nan nan nan nan nan
nan nan nan 295 295 293 302 302 307 310 308 305 307 307 312 315 313 313 306 304 308 310 312 316 314 308 301 301 302 310 313 311 306 300 293 289 290 290 287 288 284 285 290 284 281 292 310 336 341 336 333 329 328 332 336 nan nan nan nan nan nan nan nan
nan nan nan 301 298 298 301 301 309 309 304 308 312 316 321 319 311 306 303 306 310 312 318 317 312 307 300 300 302 302 308 309 304 295 290 283 283 281 280 276 274 276 277 279 285 294 299 319 332 330 332 330 329 330 327 nan nan nan nan nan nan nan nan
nan nan nan 288 292 289 286 289 301 306 305 310 315 317 318 312 304 297 297 303 312 319 321 320 314 308 300 300 291 292 301 304 299 291 286 277 268 268 273 274 273 277 279 280 291 296 303 319 328 328 330 329 330 330 329 nan nan nan nan nan nan nan nan
nan nan nan 295 288 285 288 298 307 306 303 303 306 308 306 303 297 300 301 306 313 315 315 317 316 309 305 303 296 293 291 294 294 293 286 269 254 255 260 262 269 273 273 297 292 309 319 325 330 329 331 330 331 331 nan nan nan nan nan nan nan nan nan
nan nan nan nan 293 285 288 297 298 292 289 293 296 297 299 303 309 306 302 310 313 317 318 317 315 311 307 303 304 302 301 299 295 293 269 239 230 241 249 253 260 263 267 273 312 320 328 330 332 330 332 331 329 nan nan nan nan nan nan nan nan nan nan
nan nan nan nan 313 300 293 292 290 282 282 283 290 296 304 308 308 306 311 314 314 315 316 317 314 311 308 306 307 309 303 299 288 272 230 211 219 234 243 248 246 248 270 327 327 325 331 330 326 327 328 328 327 326 nan nan nan nan nan nan nan nan nan
nan nan 324 328 323 313 305 302 300 293 295 296 302 301 304 301 303 310 316 314 313 317 320 316 313 309 308 310 311 312 300 287 264 230 214 214 222 232 237 234 232 249 318 329 320 320 321 324 326 326 324 323 324 326 nan nan nan nan nan nan nan nan nan
nan nan 316 323 319 307 301 298 296 285 284 286 287 290 303 309 311 311 308 311 315 324 319 312 310 310 311 312 315 312 297 278 237 223 221 220 219 225 224 223 231 264 311 315 303 316 312 313 320 318 323 326 328 334 334 332 nan nan nan nan nan nan nan
nan 311 317 318 311 305 297 288 285 284 280 282 288 290 294 306 315 313 311 310 318 319 312 310 309 312 314 315 317 311 298 275 238 225 225 216 210 210 216 225 237 245 285 284 301 316 307 306 304 310 320 330 338 337 334 332 nan nan nan nan nan nan nan
303 309 311 311 311 309 305 295 292 287 278 274 285 290 292 302 314 316 311 311 306 301 304 309 308 312 312 312 314 307 305 283 246 231 226 212 204 207 218 233 241 242 252 276 307 309 326 321 304 309 323 331 335 336 334 332 336 337 337 nan nan nan nan
279 288 300 307 310 308 296 283 291 290 278 274 282 286 290 299 307 311 309 305 296 295 301 303 304 306 307 312 316 302 299 291 256 234 225 211 208 216 223 230 238 244 252 238 222 303 307 311 317 310 321 332 332 338 337 336 338 338 336 nan nan nan nan
258 279 292 297 299 297 290 289 289 283 272 269 272 278 285 290 296 303 305 302 294 291 293 292 300 304 308 312 316 308 299 291 257 238 230 218 218 223 228 229 228 230 222 211 199 218 273 306 324 321 323 333 335 336 338 339 339 337 335 333 334 332 nan
249 241 264 285 291 294 294 289 285 282 276 272 271 274 280 281 284 285 290 295 293 291 297 299 300 306 309 314 322 317 295 272 251 238 233 230 230 232 232 231 226 221 219 216 220 235 277 303 318 324 330 330 332 335 339 341 340 338 336 336 336 336 337
nan nan 273 270 275 282 286 292 292 292 285 273 269 270 272 277 282 286 291 297 299 298 298 295 301 306 311 320 329 320 292 268 252 244 240 241 243 241 235 228 223 221 224 236 253 265 283 306 323 332 333 333 334 335 337 340 339 341 342 339 337 335 333
257 260 261 255 255 273 285 287 285 289 286 275 270 271 275 280 285 287 290 291 294 297 295 296 299 301 307 319 322 315 299 272 254 247 244 245 244 238 231 226 221 220 228 243 259 276 291 313 328 334 335 337 335 333 329 330 334 340 340 341 339 333 328
251 257 255 258 257 244 241 246 258 273 278 272 268 271 274 278 281 282 286 289 294 297 293 295 297 299 304 309 304 305 303 282 259 248 242 240 240 235 229 225 223 223 233 248 267 282 294 318 331 333 334 335 335 333 328 326 331 335 339 341 338 331 324
241 254 257 258 259 255 249 251 255 263 269 267 266 270 277 281 281 283 288 293 299 296 294 298 299 299 302 302 298 303 305 286 260 247 239 237 236 231 227 225 224 228 238 253 265 282 307 322 324 329 334 336 338 338 332 329 332 335 339 340 336 329 322
243 250 257 259 263 264 259 256 254 258 267 271 274 280 282 281 285 289 293 297 295 293 295 298 299 300 303 300 298 300 299 284 261 243 237 235 233 232 230 227 227 231 237 243 259 288 307 314 322 329 335 337 336 332 329 333 333 337 337 336 329 326 327
231 244 252 255 261 260 254 250 249 251 254 259 265 267 267 269 275 278 279 282 285 289 293 294 296 298 298 298 297 295 294 287 265 243 234 235 237 237 234 231 230 238 245 253 269 293 310 315 324 329 330 329 327 326 328 332 331 333 331 327 323 326 322
226 223 233 248 257 264 261 254 254 254 253 254 258 264 269 275 278 279 281 282 283 286 291 290 289 292 290 291 293 293 295 293 275 249 236 238 244 246 242 239 241 247 251 256 264 281 296 309 314 318 322 322 321 322 327 324 327 328 325 322 322 322 313
234 239 238 231 245 258 262 266 259 252 247 245 250 259 268 271 273 277 279 279 279 284 289 286 282 285 287 289 290 290 292 293 283 259 245 243 249 253 252 249 249 251 255 261 270 286 301 307 310 312 314 315 317 321 321 315 325 325 324 323 324 319 313
nan nan nan 244 235 231 246 257 259 263 269 271 265 263 265 270 272 275 274 273 275 282 287 284 281 281 281 282 284 286 287 289 285 272 258 251 254 257 254 253 251 257 261 270 274 286 295 296 298 301 307 313 317 318 318 313 319 322 323 324 325 321 316
237 237 235 236 245 247 242 244 254 261 261 261 263 262 261 264 267 270 273 271 271 276 281 280 279 279 277 275 274 276 279 282 283 280 271 262 258 256 256 257 258 258 262 268 271 278 278 283 291 295 300 309 312 314 314 304 312 321 323 324 323 321 319
232 234 235 235 236 239 247 251 254 255 258 259 258 256 257 260 263 267 275 278 278 279 280 281 281 280 277 273 270 268 270 272 277 279 278 271 264 259 257 255 254 259 267 269 270 272 277 283 287 295 299 300 302 304 307 303 306 316 321 322 324 326 321
238 239 237 233 232 234 241 248 256 260 261 258 253 249 254 264 270 273 277 281 281 283 284 285 283 279 274 270 268 267 267 266 271 278 278 275 271 264 256 254 258 263 268 272 270 272 275 281 283 289 293 294 296 298 302 302 304 311 321 323 325 327 324
235 237 240 240 236 233 237 241 246 248 247 246 247 247 246 244 248 264 272 275 277 280 280 279 275 272 272 270 269 270 268 265 265 268 268 271 270 266 262 260 264 267 272 271 272 275 276 275 276 282 285 287 292 297 300 301 306 307 319 323 324 324 326
238 238 235 234 235 233 235 239 244 246 248 249 251 251 250 255 257 253 251 251 251 248 247 248 249 257 264 262 261 263 265 263 264 261 259 264 270 271 268 263 264 266 267 269 268 268 268 265 265 271 276 281 289 293 297 297 300 309 311 318 320 323 325
242 241 237 237 240 239 239 241 240 244 247 250 251 250 252 253 251 251 253 253 252 254 257 259 258 257 256 253 250 252 255 257 257 255 253 257 260 262 261 257 255 253 251 253 255 253 251 251 256 268 282 290 290 292 292 293 295 304 313 314 320 319 321
241 241 241 240 238 238 242 242 244 246 244 245 251 257 256 254 255 254 252 252 253 258 257 257 259 262 263 260 256 255 256 256 254 252 249 250 252 253 249 245 247 250 254 258 260 263 268 265 263 276 290 291 291 290 289 290 294 299 307 310 310 311 314
243 243 243 245 245 243 245 246 246 247 249 248 247 248 253 259 259 256 256 254 250 247 253 256 256 258 260 259 257 257 258 256 254 253 253 250 250 252 252 253 252 252 252 254 256 260 261 257 257 273 288 290 287 288 287 288 293 297 296 295 299 304 309
240 242 242 244 247 250 251 251 248 247 249 250 250 252 250 249 253 261 263 264 263 260 253 251 255 260 265 268 267 266 264 262 258 256 254 253 253 253 253 252 250 251 253 255 258 258 255 253 263 280 286 284 283 284 285 288 293 295 294 293 296 301 305
238 239 240 242 244 249 253 254 254 255 253 249 250 251 254 255 255 256 258 260 262 263 262 261 263 264 265 269 269 269 268 265 262 258 252 253 254 255 254 253 255 256 257 258 261 262 258 261 275 285 281 278 281 282 285 292 295 296 298 300 301 303 304
240 240 240 239 241 244 246 250 254 256 256 256 253 252 253 256 257 258 260 261 262 264 263 264 267 269 267 262 263 267 268 269 267 260 255 251 249 246 247 253 255 254 250 245 253 258 262 269 278 277 273 277 283 288 293 298 304 310 nan nan nan nan nan
240 240 239 241 244 245 246 248 250 252 255 256 255 255 258 261 261 261 263 264 265 265 265 265 266 269 271 270 264 264 274 274 266 261 258 257 255 252 244 238 240 243 248 247 250 262 268 274 274 274 275 282 287 294 303 307 313 nan nan nan nan nan nan
240 240 241 242 246 247 249 249 250 253 255 256 258 258 258 258 257 259 261 263 264 265 265 266 265 265 268 269 271 275 265 252 253 253 253 251 250 248 247 247 243 240 239 240 240 247 255 259 267 276 286 292 290 290 302 311 nan nan nan nan nan nan nan
242 243 245 246 247 249 250 250 251 254 255 257 260 261 261 260 259 259 259 259 260 262 263 264 264 263 264 264 264 264 262 258 263 271 265 252 247 246 247 249 248 234 224 231 250 258 256 254 259 280 292 296 294 293 288 nan nan nan nan nan nan nan nan